TimeMST,TemperatureF,Dew PointF,Humidity,Sea Level PressureIn,VisibilityMPH,Wind Direction,Wind SpeedMPH,Gust SpeedMPH,PrecipitationIn,Events,Conditions,WindDirDegrees,DateUTC
12:15 AM,1.2,-5.1,75,29.96,10.0,NW,4.6,-,N/A,,Clear,310,2013-01-13 07:15:00
12:35 AM,2.5,-3.1,78,29.96,10.0,West,3.5,-,N/A,,Clear,260,2013-01-13 07:35:00
12:55 AM,-1.7,-6.2,81,29.96,10.0,NNW,3.5,-,N/A,,Clear,340,2013-01-13 07:55:00
1:15 AM,-2.9,-7.1,82,29.96,10.0,Calm,Calm,-,N/A,,Clear,0,2013-01-13 08:15:00
1:35 AM,1.0,-2.9,83,29.96,10.0,Calm,Calm,-,N/A,,Clear,0,2013-01-13 08:35:00
1:55 AM,-1.5,-6.3,80,29.98,10.0,North,4.6,-,N/A,,Clear,360,2013-01-13 08:55:00
2:15 AM,-3.1,-7.1,83,29.98,10.0,NNW,3.5,-,N/A,,Clear,330,2013-01-13 09:15:00
2:35 AM,-3.8,-8.1,82,29.98,10.0,NW,4.6,-,N/A,,Clear,310,2013-01-13 09:35:00
2:55 AM,-3.6,-8.0,82,29.97,10.0,NW,4.6,-,N/A,,Clear,310,2013-01-13 09:55:00
3:15 AM,-1.5,-5.4,83,29.96,10.0,West,4.6,-,N/A,,Clear,280,2013-01-13 10:15:00
3:35 AM,-4.5,-9.4,80,29.96,10.0,Calm,Calm,-,N/A,,Clear,0,2013-01-13 10:35:00
3:55 AM,-5.1,-9.2,82,29.96,10.0,NW,4.6,-,N/A,,Clear,320,2013-01-13 10:55:00
4:15 AM,-4.0,-7.8,84,29.94,10.0,NW,4.6,-,N/A,,Clear,320,2013-01-13 11:15:00
4:35 AM,-4.0,-8.0,83,29.94,10.0,Calm,Calm,-,N/A,,Clear,0,2013-01-13 11:35:00
4:55 AM,-4.0,-8.0,83,29.95,10.0,NNW,3.5,-,N/A,,Clear,330,2013-01-13 11:55:00
5:15 AM,-6.7,-11.0,81,29.95,10.0,WNW,4.6,-,N/A,,Clear,300,2013-01-13 12:15:00
5:35 AM,-6.5,-10.8,82,29.95,10.0,Calm,Calm,-,N/A,,Clear,0,2013-01-13 12:35:00
5:55 AM,-7.6,-12.5,79,29.95,10.0,Calm,Calm,-,N/A,,Clear,0,2013-01-13 12:55:00
6:15 AM,-10.7,-16.2,76,29.96,10.0,Calm,Calm,-,N/A,,Clear,0,2013-01-13 13:15:00
6:35 AM,-7.8,-11.7,83,29.96,10.0,NW,6.9,-,N/A,,Clear,310,2013-01-13 13:35:00
6:55 AM,-4.9,-9.2,82,29.96,10.0,WNW,5.8,-,N/A,,Clear,300,2013-01-13 13:55:00
7:15 AM,-6.2,-10.7,81,29.98,10.0,Calm,Calm,-,N/A,,Clear,0,2013-01-13 14:15:00
7:35 AM,-7.8,-12.6,79,29.98,10.0,Calm,Calm,-,N/A,,Clear,0,2013-01-13 14:35:00
7:55 AM,-5.4,-10.1,80,29.99,10.0,Calm,Calm,-,N/A,,Clear,0,2013-01-13 14:55:00
8:15 AM,-1.8,-6.5,80,29.99,10.0,Calm,Calm,-,N/A,,Clear,0,2013-01-13 15:15:00
8:35 AM,1.6,-4.0,77,29.99,10.0,Calm,Calm,-,N/A,,Clear,0,2013-01-13 15:35:00
8:55 AM,6.4,1.8,81,30.00,10.0,SSE,4.6,-,N/A,,Clear,150,2013-01-13 15:55:00
9:15 AM,10.2,3.4,74,29.99,10.0,SSE,3.5,-,N/A,,Clear,160,2013-01-13 16:15:00
9:35 AM,12.7,3.9,68,29.99,10.0,SE,4.6,-,N/A,,Clear,130,2013-01-13 16:35:00
9:55 AM,15.3,4.1,61,29.99,10.0,SE,9.2,-,N/A,,Clear,130,2013-01-13 16:55:00
10:15 AM,18.9,4.8,54,29.98,10.0,SE,10.4,-,N/A,,Clear,130,2013-01-13 17:15:00
10:35 AM,20.8,4.6,50,29.98,10.0,ESE,9.2,-,N/A,,Clear,110,2013-01-13 17:35:00
10:55 AM,24.3,4.8,43,29.96,10.0,SSE,8.1,-,N/A,,Scattered Clouds,160,2013-01-13 17:55:00
11:15 AM,24.3,2.3,39,29.94,10.0,SSW,9.2,-,N/A,,Mostly Cloudy,200,2013-01-13 18:15:00
11:55 AM,27.3,-1.8,28,29.92,10.0,South,8.1,-,N/A,,Clear,170,2013-01-13 18:55:00
12:15 PM,28.0,-2.2,27,29.90,10.0,South,11.5,-,N/A,,Clear,190,2013-01-13 19:15:00
12:35 PM,27.5,-4.0,25,29.89,10.0,SW,5.8,16.1,N/A,,Clear,230,2013-01-13 19:35:00
12:55 PM,28.6,-3.1,25,29.88,10.0,SW,11.5,16.1,N/A,,Clear,220,2013-01-13 19:55:00
1:15 PM,28.9,-3.6,24,29.87,10.0,West,8.1,-,N/A,,Clear,260,2013-01-13 20:15:00
1:35 PM,29.8,-5.1,22,29.86,10.0,SW,6.9,16.1,N/A,,Clear,220,2013-01-13 20:35:00
1:55 PM,29.1,-6.3,21,29.86,10.0,South,11.5,16.1,N/A,,Clear,190,2013-01-13 20:55:00
2:15 PM,29.7,-4.7,23,29.86,10.0,SSW,10.4,-,N/A,,Clear,210,2013-01-13 21:15:00
2:35 PM,28.9,-7.6,20,29.87,10.0,SSW,10.4,-,N/A,,Clear,200,2013-01-13 21:35:00
2:55 PM,29.3,-8.0,20,29.87,10.0,WSW,8.1,-,N/A,,Clear,240,2013-01-13 21:55:00
3:15 PM,28.6,-7.4,21,29.87,10.0,West,10.4,-,N/A,,Clear,270,2013-01-13 22:15:00
3:35 PM,29.1,-6.9,21,29.87,10.0,SW,4.6,-,N/A,,Clear,220,2013-01-13 22:35:00
3:55 PM,29.1,-7.1,21,29.87,10.0,WSW,4.6,-,N/A,,Clear,240,2013-01-13 22:55:00
4:15 PM,28.2,-7.1,21,29.87,10.0,South,3.5,-,N/A,,Clear,180,2013-01-13 23:15:00
4:35 PM,27.5,-5.8,23,29.87,10.0,SSE,5.8,-,N/A,,Clear,160,2013-01-13 23:35:00
4:55 PM,27.3,-5.4,24,29.87,10.0,SSE,5.8,-,N/A,,Clear,150,2013-01-13 23:55:00
5:15 PM,24.1,-5.8,27,29.88,10.0,SSE,3.5,-,N/A,,Clear,150,2013-01-14 00:15:00
5:35 PM,19.9,-5.6,32,29.88,10.0,SSW,5.8,-,N/A,,Clear,200,2013-01-14 00:35:00
5:55 PM,20.1,-5.4,32,29.89,10.0,SW,4.6,-,N/A,,Clear,230,2013-01-14 00:55:00
6:15 PM,16.2,-5.1,39,29.89,10.0,WSW,8.1,-,N/A,,Clear,250,2013-01-14 01:15:00
6:35 PM,15.4,-5.3,40,29.89,10.0,ESE,4.6,-,N/A,,Clear,120,2013-01-14 01:35:00
6:55 PM,15.8,-4.7,40,29.90,10.0,South,3.5,-,N/A,,Clear,180,2013-01-14 01:55:00
7:15 PM,15.3,-2.9,45,29.90,10.0,Calm,Calm,-,N/A,,Clear,0,2013-01-14 02:15:00
7:35 PM,11.3,-3.1,52,29.90,10.0,SW,3.5,-,N/A,,Scattered Clouds,220,2013-01-14 02:35:00
7:55 PM,14.2,-1.8,49,29.90,10.0,SW,4.6,-,N/A,,Mostly Cloudy,230,2013-01-14 02:55:00
8:15 PM,14.4,-1.8,49,29.90,10.0,Calm,Calm,-,N/A,,Overcast,0,2013-01-14 03:15:00
8:35 PM,11.5,-3.5,51,29.90,10.0,NW,3.5,-,N/A,,Overcast,320,2013-01-14 03:35:00
8:55 PM,7.7,-6.3,53,29.90,10.0,NW,4.6,-,N/A,,Overcast,310,2013-01-14 03:55:00
9:15 PM,8.2,-6.7,51,29.90,10.0,NNW,5.8,-,N/A,,Overcast,340,2013-01-14 04:15:00
9:35 PM,5.7,-6.5,57,29.90,10.0,NW,5.8,-,N/A,,Overcast,310,2013-01-14 04:35:00
9:55 PM,9.7,-4.9,52,29.90,10.0,NW,3.5,-,N/A,,Overcast,320,2013-01-14 04:55:00
10:15 PM,8.1,-4.7,56,29.91,10.0,NNW,5.8,-,N/A,,Overcast,330,2013-01-14 05:15:00
10:35 PM,7.9,-5.8,54,29.90,10.0,NW,4.6,-,N/A,,Overcast,310,2013-01-14 05:35:00
10:55 PM,7.0,-6.5,54,29.90,10.0,NW,3.5,-,N/A,,Mostly Cloudy,320,2013-01-14 05:55:00
11:15 PM,6.4,-6.5,55,29.90,10.0,NW,4.6,-,N/A,,Scattered Clouds,310,2013-01-14 06:15:00
11:35 PM,7.0,-5.4,57,29.90,10.0,NW,3.5,-,N/A,,Clear,310,2013-01-14 06:35:00
11:55 PM,6.6,-6.0,56,29.90,10.0,North,4.6,-,N/A,,Clear,350,2013-01-14 06:55:00